ROMMA est une association bénévole à but non lucratif. Votre soutien est indispensable : ADHERER à ROMMA ou FAIRE un DON

Chambon - (38, Isère)

Oisans (2460 m)   Longitude: 06° 10' 42" E   Latitude: 45° 01' 32" N Station partenaire n°803
 

Détail journalier du     <<     >>

Température Humidité Vent Dir Rafale Dir. rafale Neige 1 Neige 2
Heure (°C) (%) (km/h) (km/h) (cm) (cm)
01:00 2.8916O13O00
02:00 2.6907NE16NE71
03:00 2.5868NE16NE72
04:00 2.29011NE21NE62
05:00 1.8874NNE16NE10
06:00 1.5882NNE5NNE012
07:00 1.3891NE6NE20
08:00 2.5833NE8SO10
09:00 4.3742N10N10
10:00 4.6724N9OSO41
11:00 6.7694OSO10OSO20
12:00 7.0744OSO14O30
13:00 6.6802O13O30
14:00 7.6722O12O30
15:00 7.9743N14O10
16:00 7.7693NNE12NNE20
17:00 7.3793NNE10NE20
18:00 7.9764N10N20
19:00
20:00 6.4754N10N00
21:00 4.4874NNE11NNE60
22:00 3.9865NE18NE50
23:00 4.06710NE19NE60
minuit 3.86412NE17NE60

Graphique du 13-08-2019

 

Serveur OMMA